Temperature
19 18 17 16 16 15 15 15 15 15 15 15 14 14 14 13 13 13 13 13 13 13 13 13 13 14 14 13 13 13 13 13 13 14 14 14 14 14 14 14 14 12 13
20 18 17 16 16 15 15 15 15 15 15 15 14 14 13 13 12 12 12 12 12 12 12 13 13 13 13 13 13 13 13 13 13 13 14 13 14 14 13 13 13 12 13
20 18 17 16 16 15 15 15 15 15 15 15 14 13 13 12 12 12 11 12 12 12 12 13 13 13 13 13 13 13 12 13 13 13 13 12 12 13 13 13 13 13 12
20 18 17 16 15 15 15 15 15 15 15 15 13 13 12 12 12 12 12 12 12 13 13 13 13 13 13 13 12 12 12 13 13 13 12 12 12 13 13 13 12 12 12
19 18 17 16 15 15 15 15 15 15 16 15 14 13 12 12 12 12 12 13 13 13 13 13 13 13 13 13 12 12 12 13 13 12 12 12 13 13 13 13 12 12 12
19 18 18 16 15 15 15 15 15 16 16 15 14 13 13 13 12 12 12 13 13 13 13 13 13 13 13 13 13 13 13 13 13 12 12 12 13 13 14 14 13 13 12
19 18 17 16 15 15 15 15 15 15 16 15 15 14 13 13 13 12 13 13 13 13 13 13 13 13 13 13 13 13 13 13 13 12 12 12 13 14 14 14 13 13 13
19 18 17 16 15 15 14 14 15 15 15 15 15 14 13 13 13 13 13 13 13 13 14 13 13 13 13 13 13 13 13 13 13 12 13 13 13 13 13 13 13 13 13
18 18 17 16 15 14 14 14 14 14 15 15 15 14 13 13 13 13 13 13 13 13 13 13 13 13 13 13 13 13 13 13 13 12 12 12 13 13 13 13 12 13 13
18 17 17 16 15 14 14 14 14 14 14 15 15 14 14 13 13 13 13 13 13 13 13 13 13 13 13 13 13 13 13 13 12 12 12 12 12 12 12 12 12 12 12
19 18 17 16 15 15 14 14 14 14 14 14 14 14 14 13 12 13 13 13 13 13 13 13 13 13 13 12 13 12 12 12 12 12 12 12 12 12 12 12 12 12 12
19 18 18 17 16 15 15 14 14 14 14 13 13 14 13 13 12 12 13 13 13 13 13 12 12 12 12 12 12 12 12 12 12 12 12 12 12 12 11 12 12 12 12
18 18 18 17 17 16 15 14 14 14 14 13 13 13 13 13 13 12 12 12 12 12 12 12 12 12 12 12 12 12 12 12 12 11 11 12 11 11 11 11 11 11 11
17 18 18 18 17 16 16 15 14 14 14 13 13 13 13 13 13 12 12 12 12 12 12 12 12 12 12 12 12 12 12 12 11 11 11 11 11 11 10 10 10 10 10
18 18 18 18 18 17 16 16 15 14 14 14 14 13 13 13 12 12 12 12 12 12 12 12 12 12 12 12 12 12 11 11 11 11 10 11 10 10 10 10 9 9 9
18 18 19 19 18 18 17 17 16 15 14 14 14 13 13 13 12 12 12 12 12 11 11 11 12 12 12 11 11 11 11 11 10 10 9 9 9 9 9 9 9 9 9
18 18 19 19 19 18 18 17 16 15 14 14 13 13 13 13 12 12 12 12 12 12 12 12 12 12 11 11 11 11 10 10 10 9 9 8 8 8 8 8 8 8 8
18 19 19 19 19 19 18 17 16 15 14 14 13 13 13 13 13 12 12 12 12 11 11 11 11 11 11 11 10 10 10 10 9 8 8 7 7 7 7 7 7 7 8
18 18 19 19 19 19 18 17 16 15 14 14 13 13 13 13 13 12 12 12 12 11 11 11 11 11 11 10 10 10 10 9 8 8 7 7 7 7 7 7 7 7 7
18 18 18 19 19 19 18 17 15 14 14 14 13 13 13 13 13 12 12 12 12 11 11 11 11 11 10 10 9 9 9 9 7 7 6 6 6 6 6 6 6 6 7
17 18 18 19 19 18 18 17 15 14 14 14 13 13 13 13 12 12 12 11 11 11 11 11 11 10 10 9 9 8 7 8 7 6 6 6 5 6 6 6 6 6 6
16 17 18 19 19 18 18 17 15 14 14 13 13 13 13 12 12 11 11 11 11 11 11 10 10 9 9 8 7 6 6 6 5 6 6 6 5 5 5 5 5 5 5
16 17 18 18 18 18 17 16 15 14 13 13 13 13 12 12 11 11 11 11 11 10 10 10 9 8 7 7 6 5 5 6 4 4 5 4 4 4 4 5 5 5 4
16 16 17 17 17 17 17 17 16 14 13 13 12 12 11 11 11 11 10 10 10 10 10 9 8 7 6 5 5 5 4 3 2 3 3 2 1 2 2 3 3 4 3
15 16 17 17 16 16 16 16 14 13 13 13 12 11 11 10 10 10 10 10 10 9 9 8 7 6 6 5 4 4 3 2 1 0 1 1 1 0 -1 -0 0 1 1
14 15 16 16 16 16 15 14 13 13 13 12 12 11 10 10 10 10 10 9 9 9 8 7 6 5 5 4 4 3 2 1 0 -1 -1 -0 -1 -1 -1 -2 -1 -1 -2
Wind_Speed
10 16 19 19 18 17 16 15 13 12 11 11 11 11 12 11 9 7 6 6 6 6 7 5 4 5 7 10 10 10 9 8 8 8 7 6 5 5 4 2 3 3 2
14 17 20 19 18 17 16 15 13 12 11 10 9 10 10 10 8 7 6 6 6 6 7 8 7 7 9 10 10 9 8 6 6 6 4 1 2 5 5 3 4 4 3
16 18 20 19 18 17 16 15 13 12 10 9 9 10 10 9 8 7 7 7 6 7 8 9 9 10 10 10 9 7 6 5 5 4 4 4 3 4 6 5 4 5 5
16 17 18 19 18 17 16 15 13 12 11 10 10 10 10 9 8 8 8 7 7 7 8 9 9 10 10 9 8 6 5 5 5 4 5 6 5 5 8 7 6 7 7
15 16 18 20 18 17 16 15 13 12 11 10 10 10 9 9 8 8 7 7 8 7 7 8 8 8 8 7 6 5 5 5 4 5 5 5 5 6 9 9 9 9 9
15 16 18 20 18 17 16 14 13 12 11 10 9 9 8 7 7 7 7 8 7 7 6 6 6 6 6 5 5 4 5 5 7 5 5 5 6 6 9 9 10 10 10
14 15 18 19 18 17 16 14 13 12 11 10 9 8 6 5 5 6 8 7 6 5 5 5 5 4 4 4 3 4 5 6 7 6 6 5 6 8 9 9 10 11 12
14 14 17 19 18 17 16 14 13 12 10 10 9 7 5 4 3 6 7 6 4 3 3 3 4 4 3 3 4 5 6 7 6 5 5 6 6 8 9 10 11 12 13
13 13 14 17 17 18 17 15 14 12 11 10 8 7 4 4 3 6 7 5 3 2 2 3 3 4 3 4 4 5 5 5 6 5 5 5 7 9 9 10 10 10 10
11 12 13 15 16 16 16 16 15 13 11 10 8 6 6 5 5 7 7 5 2 2 3 3 4 4 4 4 4 4 3 5 4 4 4 5 7 8 8 9 10 10 10
10 11 13 13 14 14 14 15 16 14 12 11 9 8 7 6 5 6 5 4 2 2 2 3 4 4 2 4 4 2 3 4 4 4 4 7 7 7 7 8 9 10 11
13 13 13 14 14 14 12 13 12 12 12 10 9 9 8 6 4 4 6 4 3 3 3 4 4 2 2 1 2 1 3 3 4 3 4 6 6 5 7 9 11 12 12
13 13 13 14 13 13 11 11 10 10 10 10 9 9 7 6 5 5 4 5 4 3 3 4 2 3 3 3 4 3 4 4 4 3 5 7 5 6 8 10 11 12 12
10 13 14 15 14 14 12 11 10 9 9 8 10 10 8 6 5 5 4 3 3 3 3 2 2 3 3 3 4 4 4 4 3 3 6 10 9 9 10 11 12 12 12
11 12 14 15 15 14 13 11 10 10 10 11 10 11 10 7 6 5 4 4 3 3 3 3 3 3 3 3 3 4 3 3 2 1 5 12 13 12 12 12 13 13 13
13 12 13 16 16 16 14 13 12 11 11 11 11 12 12 8 7 6 5 5 4 4 4 4 4 3 3 3 3 3 3 2 0 1 4 9 14 13 13 13 13 13 13
13 12 13 14 16 17 16 15 11 11 12 11 11 13 13 10 9 7 6 5 5 6 5 4 4 3 3 2 3 3 3 2 2 3 4 4 7 11 12 13 14 14 14
13 12 12 11 15 17 16 14 11 12 12 11 12 12 12 12 11 9 7 6 7 6 5 4 3 3 3 4 4 3 3 2 3 4 4 4 4 4 7 11 12 13 13
15 13 12 13 15 16 15 13 12 11 11 10 11 10 12 12 12 10 7 7 8 6 5 4 4 3 4 5 4 4 3 2 4 4 3 3 3 3 4 7 10 11 13
15 13 12 12 14 14 13 11 9 9 9 8 8 10 13 13 13 12 9 9 8 6 5 5 5 5 4 5 5 3 1 1 4 3 3 2 1 2 5 9 10 11 12
14 13 13 13 14 14 12 12 10 9 8 7 7 11 13 14 14 12 9 8 6 6 5 5 4 5 5 5 4 3 1 2 3 3 2 4 3 4 7 10 12 13 12
15 14 13 14 15 16 14 12 9 9 7 8 8 10 13 14 13 11 10 8 7 7 7 6 4 3 4 5 4 4 3 2 2 3 4 4 5 6 8 12 13 13 14
17 15 13 15 16 17 16 12 11 9 7 6 8 8 10 12 12 12 11 9 8 7 6 6 5 4 3 3 4 4 3 3 5 5 5 5 6 7 9 11 13 15 14
18 15 14 15 16 17 18 17 19 12 10 8 9 9 10 12 12 12 12 11 9 7 7 6 4 3 2 2 2 2 2 3 4 5 5 6 7 9 11 10 13 14 13
18 15 14 16 16 18 18 19 18 14 12 12 12 14 12 10 11 12 12 10 9 7 7 6 4 3 2 1 2 2 2 3 5 5 8 9 9 9 9 11 11 12 13
17 15 15 17 17 18 18 18 18 19 19 19 17 15 11 9 9 11 11 10 9 7 6 5 3 2 1 0 2 3 4 4 5 6 8 12 13 11 13 11 10 10 12
Wind_Direction
159 157 154 151 145 140 135 131 126 122 124 129 132 132 128 121 112 103 93 83 65 49 42 42 45 110 129 125 115 103 89 74 67 63 53 37 17 359 349 338 288 248 30
155 157 152 151 147 144 140 135 129 126 127 132 136 136 133 125 115 106 94 81 65 49 42 42 51 81 101 108 106 97 84 68 60 62 39 10 20 348 336 307 287 318 324
153 155 155 153 150 147 143 138 134 131 131 135 138 136 133 127 115 103 89 74 62 52 49 50 56 66 77 83 87 83 71 51 40 38 298 322 352 350 327 310 270 271 271
155 157 160 152 153 151 147 142 138 136 136 134 133 134 132 126 114 102 86 72 65 61 59 55 57 60 62 64 63 56 42 25 30 331 320 349 336 357 323 310 289 269 269
158 160 153 153 156 155 151 147 143 141 141 137 133 132 131 128 122 109 95 81 74 70 66 63 60 56 53 48 40 26 14 10 353 299 343 340 331 349 323 310 303 293 285
162 162 155 158 159 159 156 153 150 149 148 146 142 138 137 137 134 121 110 99 90 80 71 64 60 54 46 36 22 9 1 357 304 329 337 336 336 344 318 308 302 295 292
164 164 160 162 163 164 163 161 158 157 156 156 154 151 151 154 148 135 123 115 106 91 74 60 52 46 37 19 2 350 349 341 314 328 333 335 343 332 313 306 300 293 287
165 167 163 167 167 169 170 169 167 165 163 163 164 164 155 145 144 148 138 129 119 100 65 40 32 25 13 359 350 348 346 328 313 323 333 330 353 322 313 309 303 296 288
166 170 170 175 176 175 176 175 174 172 168 169 173 169 135 88 98 146 141 134 121 74 29 16 11 11 9 5 358 352 344 320 302 323 327 332 347 320 316 320 321 319 312
172 179 178 181 184 185 184 180 177 175 170 168 168 151 126 113 112 126 141 118 93 28 12 7 11 21 32 32 24 13 338 288 311 324 325 353 342 328 335 345 348 349 352
182 189 189 188 188 190 189 182 181 177 172 170 170 153 165 178 160 154 113 99 80 41 28 26 36 46 53 87 62 26 300 326 338 338 349 4 345 344 353 8 14 16 19
191 194 196 197 194 193 190 185 189 185 181 188 179 176 186 180 168 146 120 111 108 108 103 77 74 82 314 25 79 326 345 342 338 346 10 6 352 6 32 41 39 35 32
198 194 199 200 198 197 192 191 190 188 186 189 185 182 181 178 173 177 170 155 154 153 132 110 110 53 34 23 0 1 356 340 337 346 24 24 29 48 54 48 39 31 24
211 203 199 200 199 201 198 195 193 190 188 187 186 186 183 179 180 175 175 154 152 132 105 90 65 64 45 26 3 356 354 341 341 2 48 46 57 64 58 48 37 28 19
228 215 206 201 201 200 200 199 198 195 192 189 184 187 187 183 179 168 156 140 127 114 113 99 80 64 38 23 15 4 353 343 347 50 84 62 62 63 56 45 33 22 12
234 224 210 205 203 200 199 198 199 197 193 190 186 187 188 185 173 159 149 137 125 115 103 98 83 67 41 14 1 355 339 328 312 147 118 86 67 62 55 43 29 17 5
243 232 216 209 204 202 202 199 197 195 192 190 188 188 186 181 167 154 144 136 125 117 113 102 86 60 38 8 348 344 329 306 190 153 133 110 88 69 55 38 24 11 360
246 237 221 207 205 202 201 197 194 193 191 188 183 180 178 171 159 146 136 129 125 119 110 96 77 54 28 356 339 334 313 257 198 158 142 118 88 62 51 31 13 3 353
246 238 223 208 205 200 197 194 191 189 186 180 173 168 163 154 146 135 126 123 124 116 106 96 70 41 19 356 337 328 318 228 177 172 157 129 90 37 3 3 353 349 343
246 238 226 208 201 193 187 183 179 174 168 160 155 151 146 142 137 127 121 123 122 118 112 103 86 57 24 349 328 331 358 178 190 181 191 196 223 332 336 342 338 335 329
237 227 216 202 189 179 178 177 171 164 149 136 133 136 136 134 131 125 125 124 122 114 110 105 89 60 32 357 335 328 201 187 203 198 241 262 264 294 314 333 334 328 320
230 219 207 196 184 179 179 175 168 144 125 117 117 121 127 128 128 127 128 125 121 115 105 91 80 66 42 19 356 332 316 223 184 221 273 271 282 293 314 325 324 319 316
225 214 201 192 182 178 169 153 136 121 116 114 119 117 121 123 123 125 125 122 119 114 104 91 78 66 49 39 20 359 329 312 313 276 274 279 287 300 312 315 312 312 308
220 210 198 187 179 173 165 164 163 162 154 149 141 129 122 120 122 123 122 120 116 112 109 100 86 75 50 26 32 8 326 309 295 300 279 274 286 296 299 302 306 304 299
215 202 190 180 176 172 172 171 169 157 140 133 130 128 122 121 122 124 122 119 115 112 109 108 101 82 62 13 338 323 296 278 266 280 294 301 299 294 297 296 295 292 296
210 194 183 175 174 172 171 169 164 149 143 141 142 137 132 131 127 127 124 120 118 116 115 115 111 106 71 324 291 291 294 290 294 285 289 298 301 302 300 292 286 288 295
Height
1506 1507 1508 1510 1512 1514 1515 1517 1518 1519 1519 1519 1520 1520 1521 1521 1521 1521 1521 1521 1521 1521 1521 1521 1522 1522 1523 1523 1523 1523 1523 1523 1522 1521 1521 1520 1520 1520 1520 1519 1520 1521 1520
1505 1507 1509 1511 1513 1514 1515 1516 1517 1518 1518 1518 1519 1519 1520 1521 1521 1521 1521 1521 1520 1520 1521 1521 1522 1522 1523 1523 1523 1523 1523 1522 1522 1521 1520 1520 1520 1519 1519 1519 1519 1521 1520
1505 1507 1509 1511 1513 1514 1515 1516 1517 1517 1517 1517 1517 1519 1520 1521 1521 1521 1521 1521 1520 1520 1520 1521 1521 1522 1523 1523 1523 1523 1523 1522 1522 1521 1520 1521 1520 1519 1519 1519 1519 1519 1519
1505 1508 1510 1511 1513 1514 1515 1516 1517 1517 1516 1516 1517 1518 1520 1521 1522 1522 1521 1521 1520 1520 1520 1521 1521 1522 1523 1523 1523 1523 1523 1522 1521 1521 1522 1521 1520 1519 1519 1518 1519 1519 1519
1506 1508 1510 1511 1513 1514 1515 1516 1517 1517 1516 1517 1518 1519 1520 1521 1522 1522 1522 1521 1521 1520 1520 1521 1521 1522 1523 1523 1523 1523 1523 1522 1522 1522 1522 1521 1520 1519 1518 1518 1518 1518 1519
1506 1508 1509 1511 1513 1514 1515 1516 1517 1517 1517 1517 1518 1519 1520 1522 1522 1523 1523 1522 1521 1521 1521 1521 1522 1522 1523 1523 1523 1523 1523 1522 1522 1523 1522 1522 1521 1520 1519 1518 1518 1518 1518
1506 1508 1509 1510 1512 1514 1515 1516 1517 1517 1517 1518 1518 1519 1521 1522 1523 1523 1523 1523 1523 1522 1522 1522 1523 1523 1523 1523 1523 1523 1523 1523 1523 1524 1523 1522 1521 1521 1520 1519 1518 1518 1517
1506 1507 1509 1510 1512 1514 1515 1516 1517 1517 1518 1518 1519 1520 1521 1522 1523 1524 1524 1524 1524 1523 1523 1523 1523 1524 1524 1524 1524 1524 1524 1524 1524 1524 1523 1523 1522 1521 1520 1519 1518 1518 1517
1505 1506 1508 1510 1512 1513 1515 1516 1517 1518 1518 1518 1519 1520 1521 1522 1523 1524 1524 1524 1524 1524 1524 1524 1524 1525 1525 1525 1525 1525 1524 1524 1524 1524 1523 1522 1521 1521 1519 1518 1517 1517 1516
1504 1505 1507 1509 1511 1513 1514 1516 1517 1517 1518 1518 1519 1520 1521 1522 1523 1524 1524 1525 1525 1525 1525 1525 1525 1525 1525 1525 1525 1525 1524 1524 1524 1523 1522 1521 1520 1519 1518 1517 1516 1515 1514
1502 1504 1506 1508 1510 1512 1514 1515 1516 1517 1518 1518 1519 1519 1520 1522 1524 1524 1524 1525 1525 1525 1525 1525 1525 1525 1525 1524 1524 1524 1523 1523 1523 1522 1520 1519 1518 1517 1516 1515 1513 1513 1512
1501 1502 1504 1506 1508 1510 1512 1514 1515 1516 1517 1518 1519 1519 1520 1522 1523 1524 1524 1525 1525 1525 1525 1525 1525 1525 1524 1524 1523 1522 1522 1521 1521 1520 1518 1517 1516 1515 1513 1512 1511 1510 1509
1501 1501 1502 1504 1505 1507 1509 1511 1513 1515 1516 1517 1518 1518 1519 1521 1522 1523 1524 1525 1525 1525 1525 1525 1524 1524 1523 1523 1522 1521 1520 1519 1519 1517 1515 1514 1513 1512 1510 1509 1508 1507 1506
1499 1499 1500 1501 1503 1504 1506 1508 1510 1512 1513 1515 1516 1517 1518 1520 1521 1523 1524 1524 1525 1525 1524 1524 1523 1523 1522 1521 1520 1519 1518 1517 1516 1514 1512 1511 1510 1509 1507 1506 1505 1504 1503
1496 1496 1498 1499 1500 1501 1503 1504 1506 1508 1510 1512 1513 1515 1517 1518 1520 1521 1522 1523 1524 1524 1523 1523 1522 1521 1520 1519 1518 1516 1515 1513 1512 1511 1509 1507 1506 1505 1504 1502 1501 1500 1499
1491 1493 1494 1495 1496 1498 1499 1501 1503 1505 1507 1509 1511 1513 1515 1517 1518 1520 1521 1522 1522 1522 1522 1521 1520 1519 1518 1517 1515 1513 1511 1510 1508 1507 1506 1504 1503 1502 1501 1500 1498 1497 1496
1487 1489 1490 1491 1492 1493 1495 1497 1499 1501 1503 1506 1508 1510 1512 1515 1516 1518 1519 1520 1520 1520 1520 1519 1519 1517 1516 1514 1512 1510 1508 1506 1505 1503 1502 1501 1500 1499 1498 1497 1495 1494 1492
1481 1483 1484 1486 1487 1489 1490 1492 1494 1497 1500 1502 1505 1507 1510 1512 1514 1515 1517 1518 1518 1518 1518 1518 1517 1515 1514 1512 1510 1507 1505 1503 1501 1500 1499 1498 1497 1496 1495 1493 1492 1490 1488
1475 1477 1479 1480 1482 1484 1485 1487 1490 1493 1496 1498 1501 1503 1506 1508 1511 1513 1514 1515 1516 1517 1517 1516 1515 1514 1512 1510 1507 1504 1502 1500 1498 1497 1497 1496 1495 1494 1492 1490 1488 1486 1483
1467 1470 1472 1474 1476 1478 1480 1482 1485 1488 1491 1494 1497 1499 1502 1505 1507 1510 1512 1513 1514 1515 1515 1514 1513 1511 1509 1507 1505 1502 1499 1497 1496 1495 1494 1493 1492 1490 1489 1486 1484 1481 1478
1459 1462 1465 1467 1469 1471 1473 1475 1478 1481 1485 1489 1492 1495 1498 1502 1504 1507 1509 1511 1512 1512 1512 1512 1510 1509 1507 1504 1503 1500 1497 1495 1494 1493 1492 1491 1489 1487 1485 1483 1480 1477 1473
1451 1454 1457 1460 1462 1464 1467 1470 1473 1476 1480 1484 1487 1491 1495 1498 1501 1504 1506 1508 1509 1510 1510 1509 1508 1506 1504 1502 1500 1499 1498 1497 1493 1492 1490 1488 1487 1484 1482 1479 1476 1472 1468
1443 1446 1449 1453 1455 1458 1461 1463 1466 1470 1474 1479 1483 1487 1491 1495 1498 1501 1504 1506 1507 1508 1507 1507 1505 1504 1502 1500 1499 1498 1497 1496 1493 1489 1487 1485 1482 1479 1476 1473 1470 1466 1462
1434 1438 1442 1445 1448 1451 1454 1457 1460 1464 1469 1474 1479 1484 1488 1492 1495 1499 1501 1503 1505 1505 1505 1504 1502 1501 1500 1498 1496 1495 1494 1492 1490 1486 1482 1479 1476 1472 1469 1465 1462 1459 1455
1426 1430 1435 1438 1442 1445 1449 1452 1457 1461 1465 1471 1476 1480 1485 1489 1493 1496 1499 1501 1502 1502 1501 1500 1499 1498 1497 1496 1494 1492 1489 1488 1486 1483 1478 1475 1471 1467 1463 1458 1455 1451 1448
1418 1421 1427 1431 1435 1439 1443 1447 1451 1455 1461 1466 1472 1477 1482 1486 1490 1493 1496 1498 1499 1499 1498 1497 1496 1495 1494 1492 1490 1488 1486 1485 1483 1479 1474 1469 1465 1461 1457 1452 1448 1445 1441